Flag for U.S.A. Weather past 2 weeks in Birmingham, Alabama, U.S.A.

Now
61 °F

Passing clouds.


Feels Like: 61 °F
Forecast: 53 / 60 °F
Wind: 13 mph from Southeast

Location: Birmingham International Airport


UV Index: 0 (Low)

Visibility: 10 mi


Pressure: 30.26 "Hg

Humidity: 58%

Dew point: 46 °F

Location of BirminghamLocation

Historic Weather in Birmingham

°F

Birmingham temperature yesterday

Maximum temperature yesterday: 65 °F (at 3:53 PM)
Minimum temperature yesterday: 33 °F (at 4:53 AM)
Average temperature yesterday: 50 °F

Past Weeks' High & Low Weather Summary

 TemperatureHumidityPressure
High81 °F (Apr 3, 4:53 PM)97% (Apr 7, 4:53 AM)30.37 "Hg (Apr 7, 4:53 AM)
Low33 °F (Apr 16, 4:53 AM)22% (Apr 9, 3:53 PM)29.64 "Hg (Apr 7, 8:53 AM)
Average60 °F63%30.04 "Hg
* Reported Apr 2 9:53 PM — Apr 17 9:53 PM, Birmingham, Weather by CustomWeather, © 2014

Note: Actual official high and low records may vary slightly from our data, if they occured in-between our weather recording intervals... More about our weather records

Advertising

Historic Weather Conditions — Data for Previous 24 hours

 ConditionsComfort  
Time TempWeatherWind HumidityBarometerVisibility
9:53 PM
Apr 17
63 °FOvercast.8 mph54%30.25 "Hg10 mi
8:53 PM63 °FOvercast.8 mph54%30.26 "Hg10 mi
7:53 PM64 °FOvercast.7 mph50%30.24 "Hg10 mi
6:53 PM66 °FOvercast.5 mph45%30.25 "Hg10 mi
5:53 PM67 °FOvercast.7 mph42%30.25 "Hg10 mi
4:53 PM68 °FMore clouds than sun.6 mph40%30.25 "Hg10 mi
3:53 PM69 °FPassing clouds.8 mph39%30.24 "Hg10 mi
2:53 PM68 °FBroken clouds.7 mph40%30.27 "Hg10 mi
1:53 PM67 °FBroken clouds.10 mph42%30.29 "Hg10 mi
12:53 PM65 °FPartly sunny.3 mph44%30.31 "Hg10 mi
11:53 AM63 °FPartly sunny.8 mph43%30.34 "Hg10 mi
10:53 AM59 °FPartly sunny.8 mph48%30.36 "Hg10 mi
9:53 AM56 °FScattered clouds.10 mph51%30.37 "Hg10 mi
8:53 AM52 °FScattered clouds.13 mph57%30.36 "Hg10 mi
7:53 AM49 °FPassing clouds.8 mph61%30.35 "Hg10 mi
6:53 AM47 °FPassing clouds.7 mph66%30.33 "Hg10 mi
5:53 AM47 °FPassing clouds.7 mph64%30.31 "Hg10 mi
4:53 AM49 °FPassing clouds.5 mph57%30.30 "Hg10 mi
3:53 AM50 °FPassing clouds.6 mph50%30.29 "Hg10 mi
2:53 AM51 °FPassing clouds.6 mph48%30.28 "Hg10 mi
1:53 AM53 °FPassing clouds.9 mph45%30.27 "Hg10 mi
12:53 AM54 °FPassing clouds.9 mph43%30.26 "Hg10 mi
11:53 PM
Apr 16
55 °FPassing clouds.8 mph42%30.25 "Hg10 mi
Weather by CustomWeather, © 2014

See weather overview